Private Wetterstation Sandau
Wetterdaten: Montag, 18.02.2013
Datum Zeit Temp. A. Feuchte A. Luftdruck Regen Wind Richtung Richtung Taupunkt Windchill
18.02.2013 00:01 0,6 C 92 % 1025,5 hPa 0,0 l/m 1,4 km/h (1 Bft) S-SO 157 -0,5 C 0,6 C
18.02.2013 00:06 0,6 C 92 % 1025,6 hPa 0,0 l/m 0,0 km/h (0 Bft) SO 135 -0,5 C 0,6 C
18.02.2013 00:11 0,6 C 92 % 1025,5 hPa 0,0 l/m 4,0 km/h (1 Bft) O-SO 112 -0,5 C 0,6 C
18.02.2013 00:16 0,6 C 92 % 1025,6 hPa 0,0 l/m 3,2 km/h (1 Bft) O-SO 112 -0,5 C 0,6 C
18.02.2013 00:21 0,6 C 92 % 1025,6 hPa 0,0 l/m 3,2 km/h (1 Bft) O-SO 112 -0,5 C 0,6 C
18.02.2013 00:26 0,6 C 92 % 1025,5 hPa 0,0 l/m 0,0 km/h (0 Bft) O-SO 112 -0,5 C 0,6 C
18.02.2013 00:31 0,6 C 92 % 1025,5 hPa 0,0 l/m 1,4 km/h (1 Bft) SO 135 -0,5 C 0,6 C
18.02.2013 00:36 0,6 C 92 % 1025,5 hPa 0,0 l/m 4,0 km/h (1 Bft) O-SO 112 -0,5 C 0,6 C
18.02.2013 00:41 0,6 C 92 % 1025,5 hPa 0,0 l/m 0,0 km/h (0 Bft) SO 135 -0,5 C 0,6 C
18.02.2013 00:46 0,6 C 92 % 1025,6 hPa 0,0 l/m 2,2 km/h (1 Bft) O-SO 112 -0,5 C 0,6 C
18.02.2013 00:51 0,6 C 92 % 1025,6 hPa 0,0 l/m 2,2 km/h (1 Bft) SO 135 -0,5 C 0,6 C
18.02.2013 00:56 0,6 C 92 % 1025,4 hPa 0,0 l/m 2,2 km/h (1 Bft) SO 135 -0,5 C 0,6 C
18.02.2013 01:01 0,6 C 92 % 1025,4 hPa 0,0 l/m 0,0 km/h (0 Bft) SO 135 -0,5 C 0,6 C
18.02.2013 01:06 0,6 C 92 % 1025,4 hPa 0,0 l/m 0,0 km/h (0 Bft) SO 135 -0,5 C 0,6 C
18.02.2013 01:11 0,6 C 91 % 1025,3 hPa 0,0 l/m 1,4 km/h (1 Bft) SO 135 -0,7 C 0,6 C
18.02.2013 01:16 0,5 C 91 % 1025,4 hPa 0,0 l/m 2,5 km/h (1 Bft) O-SO 112 -0,8 C 0,5 C
18.02.2013 01:21 0,6 C 91 % 1025,5 hPa 0,0 l/m 2,5 km/h (1 Bft) SO 135 -0,7 C 0,6 C
18.02.2013 01:26 0,5 C 91 % 1025,4 hPa 0,0 l/m 2,9 km/h (1 Bft) SO 135 -0,8 C 0,5 C
18.02.2013 01:31 0,5 C 91 % 1025,2 hPa 0,0 l/m 0,0 km/h (0 Bft) SO 135 -0,8 C 0,5 C
18.02.2013 01:36 0,5 C 91 % 1025,3 hPa 0,0 l/m 1,4 km/h (1 Bft) SO 135 -0,8 C 0,5 C
18.02.2013 01:41 0,5 C 91 % 1025,2 hPa 0,0 l/m 0,0 km/h (0 Bft) SO 135 -0,8 C 0,5 C
18.02.2013 01:46 0,5 C 91 % 1025,2 hPa 0,0 l/m 0,0 km/h (0 Bft) SO 135 -0,8 C 0,5 C
18.02.2013 01:51 0,5 C 91 % 1025,1 hPa 0,0 l/m 2,2 km/h (1 Bft) O-SO 112 -0,8 C 0,5 C
18.02.2013 01:56 0,5 C 91 % 1025,2 hPa 0,0 l/m 1,8 km/h (1 Bft) O-SO 112 -0,8 C 0,5 C
18.02.2013 02:01 0,5 C 91 % 1025,1 hPa 0,0 l/m 0,0 km/h (0 Bft) S-SO 157 -0,8 C 0,5 C
18.02.2013 02:06 0,5 C 91 % 1025,0 hPa 0,0 l/m 1,8 km/h (1 Bft) SO 135 -0,8 C 0,5 C
18.02.2013 02:11 0,5 C 91 % 1025,0 hPa 0,0 l/m 0,0 km/h (0 Bft) SO 135 -0,8 C 0,5 C
18.02.2013 02:16 0,5 C 91 % 1025,0 hPa 0,0 l/m 1,8 km/h (1 Bft) O-SO 112 -0,8 C 0,5 C
18.02.2013 02:21 0,5 C 91 % 1025,1 hPa 0,0 l/m 2,2 km/h (1 Bft) SO 135 -0,8 C 0,5 C
18.02.2013 02:26 0,5 C 91 % 1024,9 hPa 0,0 l/m 3,6 km/h (1 Bft) SO 135 -0,8 C 0,5 C
18.02.2013 02:31 0,5 C 91 % 1025,0 hPa 0,0 l/m 4,7 km/h (1 Bft) SO 135 -0,8 C -0,9 C
18.02.2013 02:36 0,5 C 91 % 1025,0 hPa 0,0 l/m 1,8 km/h (1 Bft) SO 135 -0,8 C 0,5 C
18.02.2013 02:41 0,4 C 91 % 1025,0 hPa 0,0 l/m 0,0 km/h (0 Bft) SO 135 -0,9 C 0,4 C
18.02.2013 02:46 0,4 C 91 % 1024,8 hPa 0,0 l/m 2,9 km/h (1 Bft) SO 135 -0,9 C 0,4 C
18.02.2013 02:51 0,4 C 91 % 1024,5 hPa 0,0 l/m 1,4 km/h (1 Bft) SO 135 -0,9 C 0,4 C
18.02.2013 02:56 0,4 C 91 % 1024,6 hPa 0,0 l/m 2,5 km/h (1 Bft) S-SO 157 -0,9 C 0,4 C
18.02.2013 03:01 0,4 C 91 % 1024,6 hPa 0,0 l/m 2,9 km/h (1 Bft) SO 135 -0,9 C 0,4 C
18.02.2013 03:06 0,4 C 91 % 1024,6 hPa 0,0 l/m 1,1 km/h (1 Bft) SO 135 -0,9 C 0,4 C
18.02.2013 03:11 0,4 C 91 % 1024,5 hPa 0,0 l/m 3,2 km/h (1 Bft) SO 135 -0,9 C 0,4 C
18.02.2013 03:16 0,4 C 91 % 1024,6 hPa 0,0 l/m 2,2 km/h (1 Bft) SO 135 -0,9 C 0,4 C
18.02.2013 03:21 0,4 C 91 % 1024,6 hPa 0,0 l/m 2,2 km/h (1 Bft) S-SO 157 -0,9 C 0,4 C
18.02.2013 03:26 0,4 C 91 % 1024,5 hPa 0,0 l/m 2,2 km/h (1 Bft) O-SO 112 -0,9 C 0,4 C
18.02.2013 03:31 0,4 C 91 % 1024,5 hPa 0,0 l/m 2,5 km/h (1 Bft) SO 135 -0,9 C 0,4 C
18.02.2013 03:36 0,4 C 91 % 1024,4 hPa 0,0 l/m 2,2 km/h (1 Bft) S-SO 157 -0,9 C 0,4 C
18.02.2013 03:41 0,4 C 91 % 1024,3 hPa 0,0 l/m 2,2 km/h (1 Bft) SO 135 -0,9 C 0,4 C
18.02.2013 03:46 0,4 C 91 % 1024,4 hPa 0,0 l/m 3,2 km/h (1 Bft) S-SO 157 -0,9 C 0,4 C
18.02.2013 03:51 0,4 C 91 % 1024,3 hPa 0,0 l/m 2,2 km/h (1 Bft) S-SO 157 -0,9 C 0,4 C
18.02.2013 03:56 0,4 C 91 % 1024,4 hPa 0,0 l/m 1,4 km/h (1 Bft) SO 135 -0,9 C 0,4 C
18.02.2013 04:01 0,4 C 91 % 1024,4 hPa 0,0 l/m 1,4 km/h (1 Bft) SO 135 -0,9 C 0,4 C
18.02.2013 04:06 0,4 C 91 % 1024,3 hPa 0,0 l/m 0,0 km/h (0 Bft) SO 135 -0,9 C 0,4 C
18.02.2013 04:11 0,4 C 91 % 1024,3 hPa 0,0 l/m 0,0 km/h (0 Bft) SO 135 -0,9 C 0,4 C
18.02.2013 04:16 0,4 C 91 % 1024,3 hPa 0,0 l/m 0,0 km/h (0 Bft) SO 135 -0,9 C 0,4 C
18.02.2013 04:21 0,4 C 91 % 1024,3 hPa 0,0 l/m 4,0 km/h (1 Bft) S-SO 157 -0,9 C 0,4 C
18.02.2013 04:26 0,4 C 91 % 1024,3 hPa 0,0 l/m 0,0 km/h (0 Bft) SO 135 -0,9 C 0,4 C
18.02.2013 04:31 0,4 C 91 % 1024,1 hPa 0,0 l/m 0,0 km/h (0 Bft) SO 135 -0,9 C 0,4 C
18.02.2013 04:36 0,4 C 91 % 1024,1 hPa 0,0 l/m 1,4 km/h (1 Bft) SO 135 -0,9 C 0,4 C
18.02.2013 04:41 0,4 C 91 % 1024,1 hPa 0,0 l/m 0,0 km/h (0 Bft) SO 135 -0,9 C 0,4 C
18.02.2013 04:46 0,4 C 91 % 1024,1 hPa 0,0 l/m 0,0 km/h (0 Bft) SO 135 -0,9 C 0,4 C
18.02.2013 04:51 0,4 C 91 % 1024,2 hPa 0,0 l/m 0,0 km/h (0 Bft) SO 135 -0,9 C 0,4 C
18.02.2013 04:56 0,4 C 91 % 1024,2 hPa 0,0 l/m 2,9 km/h (1 Bft) SO 135 -0,9 C 0,4 C
18.02.2013 05:01 0,4 C 91 % 1024,1 hPa 0,0 l/m 0,0 km/h (0 Bft) SO 135 -0,9 C 0,4 C
18.02.2013 05:06 0,4 C 91 % 1024,1 hPa 0,0 l/m 3,2 km/h (1 Bft) SO 135 -0,9 C 0,4 C
18.02.2013 05:11 0,4 C 91 % 1024,1 hPa 0,0 l/m 3,6 km/h (1 Bft) SO 135 -0,9 C 0,4 C
18.02.2013 05:16 0,4 C 91 % 1024,2 hPa 0,0 l/m 0,0 km/h (0 Bft) SO 135 -0,9 C 0,4 C
18.02.2013 05:21 0,4 C 91 % 1024,2 hPa 0,0 l/m 3,6 km/h (1 Bft) SO 135 -0,9 C 0,4 C
18.02.2013 05:26 0,3 C 91 % 1024,1 hPa 0,0 l/m 0,0 km/h (0 Bft) SO 135 -1,0 C 0,3 C
18.02.2013 05:31 0,3 C 91 % 1024,2 hPa 0,0 l/m 2,2 km/h (1 Bft) SO 135 -1,0 C 0,3 C
18.02.2013 05:36 0,3 C 91 % 1024,3 hPa 0,0 l/m 0,0 km/h (0 Bft) S-SO 157 -1,0 C 0,3 C
18.02.2013 05:41 0,3 C 91 % 1024,1 hPa 0,0 l/m 0,0 km/h (0 Bft) W 270 -1,0 C 0,3 C
18.02.2013 05:46 0,3 C 91 % 1024,0 hPa 0,0 l/m 0,0 km/h (0 Bft) S-SO 157 -1,0 C 0,3 C
18.02.2013 05:51 0,3 C 91 % 1024,2 hPa 0,0 l/m 0,0 km/h (0 Bft) S-SO 157 -1,0 C 0,3 C
18.02.2013 05:56 0,3 C 91 % 1024,1 hPa 0,0 l/m 0,0 km/h (0 Bft) S-SO 157 -1,0 C 0,3 C
18.02.2013 06:01 0,3 C 91 % 1024,1 hPa 0,0 l/m 0,0 km/h (0 Bft) S-SO 157 -1,0 C 0,3 C
18.02.2013 06:06 0,3 C 91 % 1023,9 hPa 0,0 l/m 0,0 km/h (0 Bft) S-SO 157 -1,0 C 0,3 C
18.02.2013 06:11 0,3 C 91 % 1023,9 hPa 0,0 l/m 0,0 km/h (0 Bft) S-SO 157 -1,0 C 0,3 C
18.02.2013 06:16 0,4 C 91 % 1023,9 hPa 0,0 l/m 0,0 km/h (0 Bft) S-SO 157 -0,9 C 0,4 C
18.02.2013 06:21 0,4 C 91 % 1023,9 hPa 0,0 l/m 0,0 km/h (0 Bft) S-SO 157 -0,9 C 0,4 C
18.02.2013 06:26 0,4 C 91 % 1024,0 hPa 0,0 l/m 0,0 km/h (0 Bft) S-SO 157 -0,9 C 0,4 C
18.02.2013 06:31 0,3 C 91 % 1023,7 hPa 0,0 l/m 0,0 km/h (0 Bft) S-SO 157 -1,0 C 0,3 C
18.02.2013 06:36 0,3 C 91 % 1023,6 hPa 0,0 l/m 0,0 km/h (0 Bft) S-SO 157 -1,0 C 0,3 C
18.02.2013 06:41 0,3 C 91 % 1023,7 hPa 0,0 l/m 2,5 km/h (1 Bft) SO 135 -1,0 C 0,3 C
18.02.2013 06:46 0,4 C 91 % 1023,6 hPa 0,0 l/m 1,4 km/h (1 Bft) SO 135 -0,9 C 0,4 C
18.02.2013 06:51 0,4 C 91 % 1023,7 hPa 0,0 l/m 1,4 km/h (1 Bft) SO 135 -0,9 C 0,4 C
18.02.2013 06:56 0,3 C 91 % 1023,5 hPa 0,0 l/m 2,2 km/h (1 Bft) SO 135 -1,0 C 0,3 C
18.02.2013 07:01 0,3 C 91 % 1023,6 hPa 0,0 l/m 2,5 km/h (1 Bft) SO 135 -1,0 C 0,3 C
18.02.2013 07:06 0,3 C 91 % 1023,6 hPa 0,0 l/m 3,6 km/h (1 Bft) S-SO 157 -1,0 C 0,3 C
18.02.2013 07:11 0,3 C 91 % 1023,6 hPa 0,0 l/m 1,8 km/h (1 Bft) S-SO 157 -1,0 C 0,3 C
18.02.2013 07:16 0,3 C 91 % 1023,5 hPa 0,0 l/m 2,2 km/h (1 Bft) SO 135 -1,0 C 0,3 C
18.02.2013 07:21 0,3 C 91 % 1023,6 hPa 0,0 l/m 1,4 km/h (1 Bft) S-SO 157 -1,0 C 0,3 C
18.02.2013 07:26 0,3 C 91 % 1023,7 hPa 0,0 l/m 1,8 km/h (1 Bft) S-SO 157 -1,0 C 0,3 C
18.02.2013 07:31 0,3 C 91 % 1023,7 hPa 0,0 l/m 3,2 km/h (1 Bft) SO 135 -1,0 C 0,3 C
18.02.2013 07:36 0,3 C 91 % 1023,6 hPa 0,0 l/m 2,5 km/h (1 Bft) SO 135 -1,0 C 0,3 C
18.02.2013 07:41 0,3 C 91 % 1023,7 hPa 0,0 l/m 2,2 km/h (1 Bft) S-SO 157 -1,0 C 0,3 C
18.02.2013 07:46 0,3 C 91 % 1023,9 hPa 0,0 l/m 0,0 km/h (0 Bft) S-SO 157 -1,0 C 0,3 C
18.02.2013 07:51 0,3 C 91 % 1023,8 hPa 0,0 l/m 1,8 km/h (1 Bft) S-SO 157 -1,0 C 0,3 C
18.02.2013 07:56 0,3 C 91 % 1023,9 hPa 0,0 l/m 0,0 km/h (0 Bft) S-SO 157 -1,0 C 0,3 C
18.02.2013 08:01 0,4 C 91 % 1024,0 hPa 0,0 l/m 0,0 km/h (0 Bft) SO 135 -0,9 C 0,4 C
18.02.2013 08:06 0,4 C 91 % 1023,8 hPa 0,0 l/m 1,1 km/h (1 Bft) SO 135 -0,9 C 0,4 C
18.02.2013 08:11 0,4 C 91 % 1023,9 hPa 0,0 l/m 1,1 km/h (1 Bft) S-SO 157 -0,9 C 0,4 C
18.02.2013 08:16 0,4 C 91 % 1023,8 hPa 0,0 l/m 2,5 km/h (1 Bft) S-SO 157 -0,9 C 0,4 C
18.02.2013 08:21 0,4 C 91 % 1023,8 hPa 0,0 l/m 0,0 km/h (0 Bft) S-SO 157 -0,9 C 0,4 C
18.02.2013 08:26 0,4 C 91 % 1023,7 hPa 0,0 l/m 0,0 km/h (0 Bft) S-SO 157 -0,9 C 0,4 C
18.02.2013 08:31 0,4 C 91 % 1023,7 hPa 0,0 l/m 0,0 km/h (0 Bft) S-SO 157 -0,9 C 0,4 C
18.02.2013 08:36 0,4 C 91 % 1023,7 hPa 0,0 l/m 0,0 km/h (0 Bft) S 180 -0,9 C 0,4 C
18.02.2013 08:41 0,4 C 91 % 1023,6 hPa 0,0 l/m 2,5 km/h (1 Bft) S-SO 157 -0,9 C 0,4 C
18.02.2013 08:46 0,5 C 91 % 1023,6 hPa 0,0 l/m 0,0 km/h (0 Bft) S 180 -0,8 C 0,5 C
18.02.2013 08:51 0,5 C 91 % 1023,7 hPa 0,0 l/m 0,0 km/h (0 Bft) S-SO 157 -0,8 C 0,5 C
18.02.2013 08:56 0,6 C 91 % 1023,8 hPa 0,0 l/m 4,3 km/h (1 Bft) S 180 -0,7 C 0,6 C
18.02.2013 09:01 0,6 C 91 % 1023,7 hPa 0,0 l/m 2,9 km/h (1 Bft) S-SO 157 -0,7 C 0,6 C
18.02.2013 09:06 0,6 C 91 % 1023,9 hPa 0,0 l/m 2,9 km/h (1 Bft) S-SO 157 -0,7 C 0,6 C
18.02.2013 09:11 0,6 C 91 % 1023,8 hPa 0,0 l/m 2,5 km/h (1 Bft) S 180 -0,7 C 0,6 C
18.02.2013 09:16 0,6 C 91 % 1023,7 hPa 0,0 l/m 1,4 km/h (1 Bft) S 180 -0,7 C 0,6 C
18.02.2013 09:21 0,6 C 91 % 1023,6 hPa 0,0 l/m 1,4 km/h (1 Bft) S 180 -0,7 C 0,6 C
18.02.2013 09:26 0,6 C 91 % 1023,6 hPa 0,0 l/m 1,4 km/h (1 Bft) S-SO 157 -0,7 C 0,6 C
18.02.2013 09:31 0,6 C 91 % 1023,7 hPa 0,0 l/m 2,5 km/h (1 Bft) S 180 -0,7 C 0,6 C
18.02.2013 09:36 0,7 C 91 % 1023,9 hPa 0,0 l/m 0,0 km/h (0 Bft) S 180 -0,6 C 0,7 C
18.02.2013 09:41 0,7 C 90 % 1023,5 hPa 0,0 l/m 0,0 km/h (0 Bft) S-SO 157 -0,7 C 0,7 C
18.02.2013 09:46 0,7 C 90 % 1023,7 hPa 0,0 l/m 1,8 km/h (1 Bft) S-SO 157 -0,7 C 0,7 C
18.02.2013 09:51 0,8 C 90 % 1023,8 hPa 0,0 l/m 2,2 km/h (1 Bft) S-SO 157 -0,6 C 0,8 C
18.02.2013 09:56 0,8 C 90 % 1023,8 hPa 0,0 l/m 0,0 km/h (0 Bft) S 180 -0,6 C 0,8 C
18.02.2013 10:01 0,9 C 90 % 1023,6 hPa 0,0 l/m 2,2 km/h (1 Bft) S-SO 157 -0,6 C 0,9 C
18.02.2013 10:06 0,8 C 90 % 1023,5 hPa 0,0 l/m 2,2 km/h (1 Bft) S 180 -0,6 C 0,8 C
18.02.2013 10:11 0,9 C 90 % 1023,5 hPa 0,0 l/m 4,0 km/h (1 Bft) S 180 -0,6 C 0,9 C
18.02.2013 10:16 0,9 C 90 % 1023,7 hPa 0,0 l/m 3,2 km/h (1 Bft) S 180 -0,6 C 0,9 C
18.02.2013 10:21 0,9 C 90 % 1023,5 hPa 0,0 l/m 0,0 km/h (0 Bft) S 180 -0,6 C 0,9 C
18.02.2013 10:26 0,9 C 90 % 1023,6 hPa 0,0 l/m 2,9 km/h (1 Bft) S 180 -0,6 C 0,9 C
18.02.2013 10:31 0,9 C 90 % 1023,5 hPa 0,0 l/m 2,2 km/h (1 Bft) S-SW 202 -0,6 C 0,9 C
18.02.2013 10:36 1,0 C 90 % 1023,5 hPa 0,0 l/m 2,5 km/h (1 Bft) W-SW 247 -0,5 C 1,0 C
18.02.2013 10:41 1,0 C 90 % 1023,5 hPa 0,0 l/m 1,4 km/h (1 Bft) W-SW 247 -0,5 C 1,0 C
18.02.2013 10:46 1,1 C 90 % 1023,6 hPa 0,0 l/m 0,0 km/h (0 Bft) SW 225 -0,4 C 1,1 C
18.02.2013 10:51 1,1 C 90 % 1023,5 hPa 0,0 l/m 3,6 km/h (1 Bft) W-SW 247 -0,4 C 1,1 C
18.02.2013 10:56 1,2 C 90 % 1023,5 hPa 0,0 l/m 0,0 km/h (0 Bft) W-SW 247 -0,3 C 1,2 C
18.02.2013 11:01 1,2 C 90 % 1023,4 hPa 0,0 l/m 0,0 km/h (0 Bft) W-SW 247 -0,3 C 1,2 C
18.02.2013 11:06 1,3 C 90 % 1023,4 hPa 0,0 l/m 2,2 km/h (1 Bft) W-SW 247 -0,2 C 1,3 C
18.02.2013 11:11 1,3 C 90 % 1023,4 hPa 0,0 l/m 0,0 km/h (0 Bft) W-SW 247 -0,2 C 1,3 C
18.02.2013 11:16 1,3 C 90 % 1023,3 hPa 0,0 l/m 2,5 km/h (1 Bft) SW 225 -0,2 C 1,3 C
18.02.2013 11:21 1,3 C 90 % 1023,3 hPa 0,0 l/m 1,4 km/h (1 Bft) W-SW 247 -0,2 C 1,3 C
18.02.2013 11:26 1,3 C 90 % 1023,3 hPa 0,0 l/m 2,9 km/h (1 Bft) W-SW 247 -0,2 C 1,3 C
18.02.2013 11:31 1,3 C 90 % 1023,3 hPa 0,0 l/m 4,3 km/h (1 Bft) W-SW 247 -0,2 C 1,3 C
18.02.2013 11:36 1,3 C 90 % 1023,2 hPa 0,0 l/m 1,4 km/h (1 Bft) W-SW 247 -0,2 C 1,3 C
18.02.2013 11:41 1,3 C 90 % 1023,2 hPa 0,0 l/m 0,0 km/h (0 Bft) W-SW 247 -0,2 C 1,3 C
18.02.2013 11:46 1,3 C 90 % 1023,2 hPa 0,0 l/m 1,4 km/h (1 Bft) W-SW 247 -0,2 C 1,3 C
18.02.2013 11:51 1,3 C 90 % 1023,1 hPa 0,0 l/m 4,7 km/h (1 Bft) W-SW 247 -0,2 C 0,0 C
18.02.2013 11:56 1,3 C 90 % 1023,2 hPa 0,0 l/m 0,0 km/h (0 Bft) W-SW 247 -0,2 C 1,3 C
18.02.2013 12:01 1,3 C 90 % 1023,0 hPa 0,0 l/m 0,0 km/h (0 Bft) W-SW 247 -0,2 C 1,3 C
18.02.2013 12:06 1,4 C 90 % 1023,1 hPa 0,0 l/m 1,1 km/h (1 Bft) W-NW 292 -0,1 C 1,4 C
18.02.2013 12:11 1,3 C 90 % 1023,0 hPa 0,0 l/m 0,0 km/h (0 Bft) W 270 -0,2 C 1,3 C
18.02.2013 12:16 1,4 C 90 % 1023,2 hPa 0,0 l/m 3,2 km/h (1 Bft) W-SW 247 -0,1 C 1,4 C
18.02.2013 12:21 1,3 C 90 % 1023,1 hPa 0,0 l/m 1,4 km/h (1 Bft) W 270 -0,2 C 1,3 C
18.02.2013 12:26 1,4 C 89 % 1022,9 hPa 0,0 l/m 2,2 km/h (1 Bft) W-SW 247 -0,2 C 1,4 C
18.02.2013 12:31 1,4 C 89 % 1022,9 hPa 0,0 l/m 2,9 km/h (1 Bft) W-SW 247 -0,2 C 1,4 C
18.02.2013 12:36 1,5 C 89 % 1022,8 hPa 0,0 l/m 2,5 km/h (1 Bft) W-SW 247 -0,1 C 1,5 C
18.02.2013 12:41 1,6 C 89 % 1022,7 hPa 0,0 l/m 0,0 km/h (0 Bft) W-SW 247 -0,0 C 1,6 C
18.02.2013 12:46 1,6 C 89 % 1022,6 hPa 0,0 l/m 3,2 km/h (1 Bft) W 270 -0,0 C 1,6 C
18.02.2013 12:51 1,5 C 89 % 1022,6 hPa 0,0 l/m 0,0 km/h (0 Bft) W 270 -0,1 C 1,5 C
18.02.2013 12:56 1,5 C 89 % 1022,6 hPa 0,0 l/m 2,5 km/h (1 Bft) W-SW 247 -0,1 C 1,5 C
18.02.2013 13:01 1,6 C 89 % 1022,6 hPa 0,0 l/m 2,2 km/h (1 Bft) W-SW 247 -0,0 C 1,6 C
18.02.2013 13:06 1,6 C 89 % 1022,7 hPa 0,0 l/m 2,2 km/h (1 Bft) W-SW 247 -0,0 C 1,6 C
18.02.2013 13:11 1,6 C 89 % 1022,6 hPa 0,0 l/m 0,0 km/h (0 Bft) W-SW 247 -0,0 C 1,6 C
18.02.2013 13:16 1,7 C 89 % 1022,6 hPa 0,0 l/m 0,0 km/h (0 Bft) S-SW 202 0,1 C 1,7 C
18.02.2013 13:21 1,8 C 89 % 1022,5 hPa 0,0 l/m 0,0 km/h (0 Bft) W-SW 247 0,2 C 1,8 C
18.02.2013 13:26 1,8 C 89 % 1022,6 hPa 0,0 l/m 2,2 km/h (1 Bft) W-SW 247 0,2 C 1,8 C
18.02.2013 13:31 1,8 C 88 % 1022,5 hPa 0,0 l/m 0,0 km/h (0 Bft) W-SW 247 0,0 C 1,8 C
18.02.2013 13:36 1,6 C 88 % 1022,5 hPa 0,0 l/m 0,0 km/h (0 Bft) W-SW 247 -0,2 C 1,6 C
18.02.2013 13:41 1,8 C 88 % 1022,4 hPa 0,0 l/m 0,0 km/h (0 Bft) W-SW 247 0,0 C 1,8 C
18.02.2013 13:46 1,8 C 88 % 1022,3 hPa 0,0 l/m 1,1 km/h (1 Bft) W-SW 247 0,0 C 1,8 C
18.02.2013 13:51 1,9 C 88 % 1022,3 hPa 0,0 l/m 0,0 km/h (0 Bft) W 270 0,1 C 1,9 C
18.02.2013 13:56 1,9 C 88 % 1022,3 hPa 0,0 l/m 3,6 km/h (1 Bft) W-SW 247 0,1 C 1,9 C
18.02.2013 14:01 2,1 C 88 % 1022,2 hPa 0,0 l/m 0,0 km/h (0 Bft) W-SW 247 0,3 C 2,1 C
18.02.2013 14:06 2,1 C 88 % 1022,3 hPa 0,0 l/m 0,0 km/h (0 Bft) W 270 0,3 C 2,1 C
18.02.2013 14:11 2,1 C 88 % 1022,3 hPa 0,0 l/m 3,6 km/h (1 Bft) W-SW 247 0,3 C 2,1 C
18.02.2013 14:16 2,2 C 87 % 1022,2 hPa 0,0 l/m 0,0 km/h (0 Bft) W-SW 247 0,3 C 2,2 C
18.02.2013 14:21 2,2 C 87 % 1022,2 hPa 0,0 l/m 3,2 km/h (1 Bft) W-NW 292 0,3 C 2,2 C
18.02.2013 14:26 2,2 C 87 % 1022,1 hPa 0,0 l/m 6,8 km/h (2 Bft) W-SW 247 0,3 C 0,2 C
18.02.2013 14:31 2,2 C 87 % 1022,1 hPa 0,0 l/m 2,9 km/h (1 Bft) W 270 0,3 C 2,2 C
18.02.2013 14:36 2,2 C 87 % 1022,1 hPa 0,0 l/m 0,0 km/h (0 Bft) NW 315 0,3 C 2,2 C
18.02.2013 14:41 2,2 C 87 % 1022,1 hPa 0,0 l/m 1,4 km/h (1 Bft) W 270 0,3 C 2,2 C
18.02.2013 14:46 2,2 C 87 % 1022,1 hPa 0,0 l/m 3,6 km/h (1 Bft) W-SW 247 0,3 C 2,2 C
18.02.2013 14:51 2,2 C 86 % 1021,9 hPa 0,0 l/m 3,2 km/h (1 Bft) W-SW 247 0,1 C 2,2 C
18.02.2013 14:56 2,1 C 86 % 1021,9 hPa 0,0 l/m 2,5 km/h (1 Bft) W 270 0,0 C 2,1 C
18.02.2013 15:01 2,1 C 86 % 1021,8 hPa 0,0 l/m 2,5 km/h (1 Bft) NW 315 0,0 C 2,1 C
18.02.2013 15:06 2,1 C 86 % 1021,8 hPa 0,0 l/m 3,6 km/h (1 Bft) NW 315 0,0 C 2,1 C
18.02.2013 15:11 2,1 C 86 % 1021,6 hPa 0,0 l/m 0,0 km/h (0 Bft) W 270 0,0 C 2,1 C
18.02.2013 15:16 2,0 C 86 % 1021,6 hPa 0,0 l/m 2,2 km/h (1 Bft) W-NW 292 -0,1 C 2,0 C
18.02.2013 15:21 1,9 C 86 % 1021,5 hPa 0,0 l/m 1,8 km/h (1 Bft) W-SW 247 -0,2 C 1,9 C
18.02.2013 15:26 1,9 C 86 % 1021,5 hPa 0,0 l/m 5,0 km/h (1 Bft) W-SW 247 -0,2 C 0,6 C
18.02.2013 15:31 1,9 C 86 % 1021,4 hPa 0,0 l/m 1,4 km/h (1 Bft) W-SW 247 -0,2 C 1,9 C
18.02.2013 15:36 1,9 C 86 % 1021,4 hPa 0,0 l/m 4,7 km/h (1 Bft) W-SW 247 -0,2 C 0,7 C
18.02.2013 15:41 1,9 C 86 % 1021,4 hPa 0,0 l/m 6,1 km/h (2 Bft) W-SW 247 -0,2 C 0,1 C
18.02.2013 15:46 1,9 C 86 % 1021,4 hPa 0,0 l/m 3,2 km/h (1 Bft) W 270 -0,2 C 1,9 C
18.02.2013 15:51 1,9 C 86 % 1021,2 hPa 0,0 l/m 2,5 km/h (1 Bft) W-SW 247 -0,2 C 1,9 C
18.02.2013 15:56 1,8 C 86 % 1021,4 hPa 0,0 l/m 0,0 km/h (0 Bft) W-SW 247 -0,3 C 1,8 C
18.02.2013 16:01 1,8 C 86 % 1021,2 hPa 0,0 l/m 3,6 km/h (1 Bft) W 270 -0,3 C 1,8 C
18.02.2013 16:06 1,9 C 86 % 1021,1 hPa 0,0 l/m 8,3 km/h (2 Bft) W-SW 247 -0,2 C -0,6 C
18.02.2013 16:11 1,9 C 86 % 1021,2 hPa 0,0 l/m 7,6 km/h (2 Bft) W-SW 247 -0,2 C -0,4 C
18.02.2013 16:16 1,8 C 86 % 1021,1 hPa 0,0 l/m 4,7 km/h (1 Bft) W-NW 292 -0,3 C 0,6 C
18.02.2013 16:21 1,8 C 86 % 1021,0 hPa 0,0 l/m 2,2 km/h (1 Bft) W 270 -0,3 C 1,8 C
18.02.2013 16:26 1,8 C 86 % 1021,1 hPa 0,0 l/m 0,0 km/h (0 Bft) NW 315 -0,3 C 1,8 C
18.02.2013 16:31 1,8 C 86 % 1021,1 hPa 0,0 l/m 3,6 km/h (1 Bft) W 270 -0,3 C 1,8 C
18.02.2013 16:36 1,7 C 86 % 1021,0 hPa 0,0 l/m 2,9 km/h (1 Bft) W 270 -0,4 C 1,7 C
18.02.2013 16:41 1,8 C 86 % 1020,8 hPa 0,0 l/m 7,2 km/h (2 Bft) W-SW 247 -0,3 C -0,4 C
18.02.2013 16:46 1,6 C 86 % 1021,0 hPa 0,0 l/m 2,5 km/h (1 Bft) W-SW 247 -0,5 C 1,6 C
18.02.2013 16:51 1,6 C 86 % 1021,0 hPa 0,0 l/m 4,3 km/h (1 Bft) W-SW 247 -0,5 C 1,6 C
18.02.2013 16:56 1,6 C 87 % 1020,8 hPa 0,0 l/m 1,8 km/h (1 Bft) S-SW 202 -0,3 C 1,6 C
18.02.2013 17:01 1,6 C 87 % 1020,8 hPa 0,0 l/m 2,9 km/h (1 Bft) S-SW 202 -0,3 C 1,6 C
18.02.2013 17:06 1,6 C 87 % 1020,7 hPa 0,0 l/m 1,1 km/h (1 Bft) SW 225 -0,3 C 1,6 C
18.02.2013 17:11 1,5 C 87 % 1020,7 hPa 0,0 l/m 4,0 km/h (1 Bft) SW 225 -0,4 C 1,5 C
18.02.2013 17:16 1,5 C 87 % 1020,7 hPa 0,0 l/m 2,9 km/h (1 Bft) W-SW 247 -0,4 C 1,5 C
18.02.2013 17:21 1,4 C 87 % 1020,7 hPa 0,0 l/m 2,5 km/h (1 Bft) SW 225 -0,5 C 1,4 C
18.02.2013 17:26 1,4 C 87 % 1020,7 hPa 0,0 l/m 4,0 km/h (1 Bft) SW 225 -0,5 C 1,4 C
18.02.2013 17:31 1,3 C 87 % 1020,6 hPa 0,0 l/m 5,0 km/h (1 Bft) W-SW 247 -0,6 C -0,1 C
18.02.2013 17:36 1,3 C 87 % 1020,7 hPa 0,0 l/m 3,6 km/h (1 Bft) W 270 -0,6 C 1,3 C
18.02.2013 17:41 1,3 C 87 % 1020,7 hPa 0,0 l/m 2,2 km/h (1 Bft) W-SW 247 -0,6 C 1,3 C
18.02.2013 17:46 1,3 C 87 % 1020,7 hPa 0,0 l/m 0,0 km/h (0 Bft) W-SW 247 -0,6 C 1,3 C
18.02.2013 17:51 1,3 C 87 % 1020,5 hPa 0,0 l/m 2,5 km/h (1 Bft) W-SW 247 -0,6 C 1,3 C
18.02.2013 17:56 1,3 C 88 % 1020,6 hPa 0,0 l/m 2,2 km/h (1 Bft) W 270 -0,5 C 1,3 C
18.02.2013 18:01 1,3 C 88 % 1020,6 hPa 0,0 l/m 0,0 km/h (0 Bft) W-SW 247 -0,5 C 1,3 C
18.02.2013 18:06 1,3 C 88 % 1020,5 hPa 0,0 l/m 4,3 km/h (1 Bft) W 270 -0,5 C 1,3 C
18.02.2013 18:11 1,3 C 88 % 1020,6 hPa 0,0 l/m 2,5 km/h (1 Bft) W-SW 247 -0,5 C 1,3 C
18.02.2013 18:16 1,3 C 88 % 1020,5 hPa 0,0 l/m 3,2 km/h (1 Bft) SW 225 -0,5 C 1,3 C
18.02.2013 18:21 1,3 C 88 % 1020,4 hPa 0,0 l/m 2,5 km/h (1 Bft) SW 225 -0,5 C 1,3 C
18.02.2013 18:26 1,3 C 88 % 1020,6 hPa 0,0 l/m 3,2 km/h (1 Bft) S-SW 202 -0,5 C 1,3 C
18.02.2013 18:31 1,3 C 88 % 1020,6 hPa 0,0 l/m 5,8 km/h (2 Bft) SW 225 -0,5 C -0,5 C
18.02.2013 18:36 1,2 C 89 % 1020,4 hPa 0,0 l/m 6,5 km/h (2 Bft) W-SW 247 -0,4 C -0,8 C
18.02.2013 18:41 1,2 C 89 % 1020,4 hPa 0,0 l/m 2,5 km/h (1 Bft) W-SW 247 -0,4 C 1,2 C
18.02.2013 18:46 1,2 C 89 % 1020,3 hPa 0,0 l/m 6,5 km/h (2 Bft) W-SW 247 -0,4 C -0,8 C
18.02.2013 18:51 1,2 C 89 % 1020,3 hPa 0,0 l/m 6,5 km/h (2 Bft) W-SW 247 -0,4 C -0,8 C
18.02.2013 18:56 1,2 C 89 % 1020,4 hPa 0,0 l/m 3,6 km/h (1 Bft) W-SW 247 -0,4 C 1,2 C
18.02.2013 19:01 1,2 C 89 % 1020,2 hPa 0,0 l/m 4,0 km/h (1 Bft) SW 225 -0,4 C 1,2 C
18.02.2013 19:06 1,2 C 89 % 1020,2 hPa 0,0 l/m 5,8 km/h (2 Bft) W 270 -0,4 C -0,6 C
18.02.2013 19:11 1,2 C 89 % 1020,1 hPa 0,0 l/m 13,0 km/h (3 Bft) W 270 -0,4 C -2,6 C
18.02.2013 19:16 1,2 C 89 % 1020,1 hPa 0,0 l/m 4,0 km/h (1 Bft) SW 225 -0,4 C 1,2 C
18.02.2013 19:21 1,2 C 89 % 1019,9 hPa 0,0 l/m 8,3 km/h (2 Bft) W-SW 247 -0,4 C -1,4 C
18.02.2013 19:26 1,2 C 89 % 1019,9 hPa 0,0 l/m 4,3 km/h (1 Bft) W-SW 247 -0,4 C 1,2 C
18.02.2013 19:31 1,1 C 89 % 1019,7 hPa 0,0 l/m 6,5 km/h (2 Bft) W 270 -0,5 C -0,9 C
18.02.2013 19:36 1,1 C 89 % 1019,7 hPa 0,0 l/m 8,6 km/h (2 Bft) W-SW 247 -0,5 C -1,6 C
18.02.2013 19:41 1,1 C 89 % 1019,7 hPa 0,0 l/m 6,1 km/h (2 Bft) W 270 -0,5 C -0,8 C
18.02.2013 19:46 1,1 C 89 % 1019,7 hPa 0,0 l/m 5,0 km/h (1 Bft) S-SW 202 -0,5 C -0,3 C
18.02.2013 19:51 1,1 C 89 % 1019,7 hPa 0,0 l/m 5,4 km/h (1 Bft) W-SW 247 -0,5 C -0,5 C
18.02.2013 19:56 1,2 C 89 % 1019,8 hPa 0,0 l/m 8,6 km/h (2 Bft) W 270 -0,4 C -1,5 C
18.02.2013 20:01 1,2 C 89 % 1019,7 hPa 0,0 l/m 11,5 km/h (2 Bft) W-SW 247 -0,4 C -2,2 C
18.02.2013 20:06 1,2 C 89 % 1019,6 hPa 0,0 l/m 10,1 km/h (2 Bft) W 270 -0,4 C -1,9 C
18.02.2013 20:11 1,2 C 89 % 1019,6 hPa 0,0 l/m 9,4 km/h (2 Bft) W-SW 247 -0,4 C -1,7 C
18.02.2013 20:16 1,3 C 89 % 1019,4 hPa 0,0 l/m 5,8 km/h (2 Bft) W-SW 247 -0,3 C -0,5 C
18.02.2013 20:21 1,3 C 89 % 1019,4 hPa 0,0 l/m 5,8 km/h (2 Bft) W 270 -0,3 C -0,5 C
18.02.2013 20:26 1,3 C 89 % 1019,3 hPa 0,0 l/m 7,6 km/h (2 Bft) W-SW 247 -0,3 C -1,1 C
18.02.2013 20:31 1,3 C 89 % 1019,3 hPa 0,0 l/m 15,1 km/h (3 Bft) W 270 -0,3 C -2,8 C
18.02.2013 20:36 1,3 C 89 % 1019,3 hPa 0,0 l/m 3,2 km/h (1 Bft) W-SW 247 -0,3 C 1,3 C
18.02.2013 20:41 1,3 C 89 % 1019,3 hPa 0,0 l/m 8,3 km/h (2 Bft) W-SW 247 -0,3 C -1,3 C
18.02.2013 20:46 1,3 C 89 % 1019,1 hPa 0,0 l/m 8,3 km/h (2 Bft) W 270 -0,3 C -1,3 C
18.02.2013 20:51 1,2 C 89 % 1019,2 hPa 0,0 l/m 0,0 km/h (0 Bft) W 270 -0,4 C 1,2 C
18.02.2013 20:56 1,2 C 89 % 1019,3 hPa 0,0 l/m 4,7 km/h (1 Bft) SW 225 -0,4 C -0,1 C
18.02.2013 21:01 1,2 C 89 % 1019,3 hPa 0,0 l/m 14,0 km/h (3 Bft) W 270 -0,4 C -2,8 C
18.02.2013 21:06 1,2 C 89 % 1019,2 hPa 0,0 l/m 5,0 km/h (1 Bft) W-SW 247 -0,4 C -0,2 C
18.02.2013 21:11 1,2 C 89 % 1019,2 hPa 0,0 l/m 6,5 km/h (2 Bft) W-SW 247 -0,4 C -0,8 C
18.02.2013 21:16 1,2 C 89 % 1018,9 hPa 0,0 l/m 8,6 km/h (2 Bft) W 270 -0,4 C -1,5 C
18.02.2013 21:21 1,2 C 89 % 1019,1 hPa 0,0 l/m 3,6 km/h (1 Bft) W 270 -0,4 C 1,2 C
18.02.2013 21:26 1,1 C 89 % 1019,0 hPa 0,0 l/m 4,7 km/h (1 Bft) W-SW 247 -0,5 C -0,2 C
18.02.2013 21:31 1,1 C 89 % 1018,8 hPa 0,0 l/m 7,6 km/h (2 Bft) W 270 -0,5 C -1,3 C
18.02.2013 21:36 1,1 C 89 % 1018,9 hPa 0,0 l/m 8,6 km/h (2 Bft) W-SW 247 -0,5 C -1,6 C
18.02.2013 21:41 1,1 C 89 % 1018,7 hPa 0,0 l/m 4,0 km/h (1 Bft) W 270 -0,5 C 1,1 C
18.02.2013 21:46 1,1 C 90 % 1018,6 hPa 0,0 l/m 8,6 km/h (2 Bft) W-SW 247 -0,4 C -1,6 C
18.02.2013 21:51 1,1 C 90 % 1018,7 hPa 0,0 l/m 8,6 km/h (2 Bft) W 270 -0,4 C -1,6 C
18.02.2013 21:56 1,1 C 90 % 1018,8 hPa 0,0 l/m 9,4 km/h (2 Bft) W-SW 247 -0,4 C -1,8 C
18.02.2013 22:01 1,1 C 90 % 1018,8 hPa 0,0 l/m 5,4 km/h (1 Bft) W-SW 247 -0,4 C -0,5 C
18.02.2013 22:06 1,1 C 89 % 1018,6 hPa 0,0 l/m 6,5 km/h (2 Bft) W-SW 247 -0,5 C -0,9 C
18.02.2013 22:11 1,1 C 89 % 1018,5 hPa 0,0 l/m 3,6 km/h (1 Bft) W 270 -0,5 C 1,1 C
18.02.2013 22:16 1,1 C 89 % 1018,5 hPa 0,0 l/m 5,0 km/h (1 Bft) W 270 -0,5 C -0,3 C
18.02.2013 22:21 1,1 C 89 % 1018,4 hPa 0,0 l/m 4,7 km/h (1 Bft) W 270 -0,5 C -0,2 C
18.02.2013 22:26 1,0 C 89 % 1018,5 hPa 0,0 l/m 4,7 km/h (1 Bft) W-SW 247 -0,6 C -0,3 C
18.02.2013 22:31 1,0 C 89 % 1018,4 hPa 0,0 l/m 3,2 km/h (1 Bft) W-SW 247 -0,6 C 1,0 C
18.02.2013 22:36 0,9 C 89 % 1018,2 hPa 0,0 l/m 4,3 km/h (1 Bft) W-SW 247 -0,7 C 0,9 C
18.02.2013 22:41 0,9 C 90 % 1018,2 hPa 0,0 l/m 10,1 km/h (2 Bft) W-SW 247 -0,6 C -2,3 C
18.02.2013 22:46 0,9 C 90 % 1018,4 hPa 0,0 l/m 9,4 km/h (2 Bft) W-SW 247 -0,6 C -2,1 C
18.02.2013 22:51 0,9 C 90 % 1018,1 hPa 0,0 l/m 5,0 km/h (1 Bft) W-SW 247 -0,6 C -0,6 C
18.02.2013 22:56 0,9 C 90 % 1018,0 hPa 0,0 l/m 23,0 km/h (4 Bft) W 270 -0,6 C -4,5 C
18.02.2013 23:01 0,8 C 90 % 1018,1 hPa 0,0 l/m 7,6 km/h (2 Bft) W-SW 247 -0,6 C -1,7 C
18.02.2013 23:06 0,8 C 90 % 1018,0 hPa 0,0 l/m 2,2 km/h (1 Bft) W-SW 247 -0,6 C 0,8 C
18.02.2013 23:11 0,8 C 91 % 1017,9 hPa 0,0 l/m 7,2 km/h (2 Bft) W-SW 247 -0,5 C -1,5 C
18.02.2013 23:16 0,8 C 91 % 1017,7 hPa 0,0 l/m 14,8 km/h (3 Bft) W-SW 247 -0,5 C -3,4 C
18.02.2013 23:21 0,8 C 91 % 1017,9 hPa 0,0 l/m 21,2 km/h (4 Bft) W-SW 247 -0,5 C -4,4 C
18.02.2013 23:26 0,8 C 91 % 1017,8 hPa 0,0 l/m 11,9 km/h (2 Bft) W-SW 247 -0,5 C -2,8 C
18.02.2013 23:31 0,8 C 91 % 1017,7 hPa 0,0 l/m 19,8 km/h (3 Bft) W-SW 247 -0,5 C -4,2 C
18.02.2013 23:36 0,8 C 91 % 1017,6 hPa 0,0 l/m 4,3 km/h (1 Bft) W-SW 247 -0,5 C 0,8 C
18.02.2013 23:41 0,8 C 91 % 1017,5 hPa 0,0 l/m 5,0 km/h (1 Bft) W-NW 292 -0,5 C -0,7 C
18.02.2013 23:46 0,7 C 91 % 1017,4 hPa 0,0 l/m 2,9 km/h (1 Bft) W 270 -0,6 C 0,7 C
18.02.2013 23:51 0,7 C 91 % 1017,6 hPa 0,0 l/m 5,8 km/h (2 Bft) W-SW 247 -0,6 C -1,1 C
18.02.2013 23:56 0,7 C 91 % 1017,5 hPa 0,0 l/m 5,0 km/h (1 Bft) W 270 -0,6 C -0,8 C
_ Min-Zeit 05:26 14:51 23:46 - 00:06 - - 05:26 22:56
Minimum _ 0,3 C 86 % 1017,4 hPa - 0,0 km/h (0 Bft) - - -1,0 C -4,5 C
_ Max-Zeit 14:16 00:01 00:06 00:01 22:56 - - 14:01 14:16
Maximum _ 2,2 C 92 % 1025,6 hPa 0,0 l/m 23,0 km/h
W (4 Bft)
- - 0,3 C 2,2 C
Durchschnitt _ 1,0 C 90 % 1022,3 hPa #0,0 l/m 3,1 km/h (1 Bft) W-SW - -0,5 C 0,5 C
(c) by David Heller